GW1769 Weather Reports


time (UTC)temp
F
wind
direction
speed
knots
gust
knots
rain 1hr
in
rain 24hr
in
rain mn
in
humidity
%
barometer
mb
20260902061430 61 177 0.0 0.0 0.00 0.00 0.00 99 1016.1
20260902060926 61 172 0.0 0.0 0.00 0.00 0.00 99 1016.0
20260902060422 61 177 0.0 0.0 0.00 0.00 0.00 99 1016.0
20260902055917 61 164 0.0 0.0 0.00 0.00 0.00 99 1015.8
20260902055414 61 195 0.0 0.0 0.00 0.00 0.00 99 1015.8
20260902054909 61 144 0.9 1.7 0.00 0.00 0.00 99 1015.7
20260902054403 61 178 0.0 0.0 0.00 0.00 0.00 99 1015.7
20260902053859 61 181 0.0 0.0 0.00 0.00 0.00 99 1015.8
20260902053355 62 175 0.0 0.0 0.00 0.00 0.00 99 1015.5
20260902052853 62 178 0.0 0.0 0.00 0.00 0.00 99 1015.7
20260902052349 62 178 0.0 0.0 0.00 0.00 0.00 99 1015.5
20260902051844 62 174 0.0 0.0 0.00 0.00 0.00 99 1015.6
20260902051343 62 182 0.0 0.0 0.00 0.00 0.00 99 1015.5
20260902050838 62 179 0.0 0.0 0.00 0.00 0.00 99 1015.4
20260902050337 62 175 0.0 0.0 0.00 0.00 0.00 99 1015.0
20260902045832 62 173 0.0 0.0 0.00 0.00 0.00 99 1015.1
20260902045328 62 179 0.0 0.0 0.00 0.00 0.00 99 1015.0
20260902044825 62 179 0.0 0.0 0.00 0.00 0.00 99 1015.0
20260902044320 62 179 0.0 0.0 0.00 0.00 0.00 99 1014.8
20260902043819 62 255 0.9 1.7 0.00 0.00 0.00 99 1014.9
20260902043315 62 176 0.0 0.0 0.00 0.00 0.00 99 1014.8
20260902042814 62 183 0.0 0.0 0.00 0.00 0.00 99 1014.9
20260902042309 62 180 0.0 0.0 0.00 0.00 0.00 99 1014.6
20260902041805 63 178 0.0 0.9 0.00 0.00 0.00 99 1014.4
20260902041304 63 153 0.0 0.0 0.00 0.00 0.00 99 1014.6
20260902040803 63 164 0.0 0.0 0.00 0.00 0.00 99 1014.3
20260902040259 63 27 0.0 0.0 0.00 0.00 0.00 99 1014.1
20260902035757 63 178 0.0 0.0 0.00 0.00 0.00 99 1014.4
20260902035254 63 181 0.0 0.0 0.00 0.00 0.00 99 1014.4
20260902034752 63 177 0.0 0.0 0.00 0.00 0.00 99 1014.4
20260902034248 63 179 0.0 0.0 0.00 0.00 0.00 99 1014.0
20260902033745 63 187 0.0 0.0 0.00 0.00 0.00 99 1014.2
20260902033241 63 175 0.0 0.0 0.00 0.00 0.00 99 1014.2
20260902032739 64 179 0.0 0.0 0.00 0.00 0.00 99 1014.3
20260902032235 64 179 0.0 0.0 0.00 0.00 0.00 99 1014.2
20260902031734 64 177 0.0 0.0 0.00 0.00 0.00 99 1014.4
20260902031230 64 172 0.0 0.0 0.00 0.00 0.00 99 1014.4
20260902030726 64 176 0.0 0.0 0.00 0.00 0.00 99 1014.4
20260902030220 64 176 0.0 0.0 0.00 0.00 0.00 99 1014.1
20260902025719 64 264 0.0 0.9 0.00 0.00 0.00 99 1013.9
20260902025214 64 177 0.0 0.0 0.00 0.00 0.00 99 1014.3
20260902024709 65 171 0.0 0.0 0.00 0.00 0.00 99 1014.3
20260902024204 65 173 0.0 0.0 0.00 0.00 0.00 99 1014.4
20260902023700 65 149 0.0 0.0 0.00 0.00 0.00 99 1014.6
20260902023155 65 164 0.0 0.0 0.00 0.00 0.00 99 1014.4
20260902022654 65 178 0.0 0.0 0.00 0.00 0.00 99 1014.4
20260902022150 65 193 0.0 0.0 0.00 0.00 0.00 99 1014.7
20260902021646 65 178 0.0 0.0 0.00 0.00 0.00 99 1014.6
20260902021140 65 165 0.0 0.0 0.00 0.00 0.00 99 1014.6
20260902020637 65 188 0.0 0.0 0.00 0.00 0.00 99 1014.6
20260902020132 65 181 0.0 0.0 0.00 0.00 0.00 99 1014.7
20260902015627 65 173 0.0 0.0 0.00 0.00 0.00 99 1014.8
20260902015124 65 181 0.0 0.0 0.00 0.00 0.00 99 1014.8
20260902014619 65 180 0.0 0.0 0.00 0.00 0.00 99 1014.3
20260902014115 65 181 0.0 0.0 0.00 0.00 0.00 99 1014.6
20260902013614 65 180 0.0 0.0 0.00 0.00 0.00 99 1014.6
20260902013110 65 176 0.0 0.0 0.00 0.00 0.00 99 1014.1
20260902012605 65 178 0.0 0.0 0.00 0.00 0.00 99 1014.1
20260902012100 65 177 0.0 0.0 0.00 0.00 0.00 99 1014.1
20260902011555 65 182 0.0 0.0 0.00 0.00 0.00 99 1013.8
20260902011054 66 192 0.0 0.0 0.00 0.00 0.00 99 1013.8
20260902010549 66 179 0.0 0.0 0.00 0.00 0.00 99 1014.0
20260902010045 66 186 0.0 0.0 0.00 0.00 0.00 99 1013.7
20260902005542 66 184 0.0 0.0 0.00 0.00 0.00 99 1013.8
20260902005039 66 189 0.0 0.0 0.00 0.00 0.00 99 1013.7
20260902004538 66 185 0.0 0.0 0.00 0.00 0.00 99 1013.8
20260902004033 66 197 0.0 0.9 0.00 0.00 0.00 99 1013.5
20260902003523 66 177 0.0 0.0 0.00 0.00 0.00 99 1013.6
20260902003018 66 181 0.0 0.0 0.00 0.00 0.00 99 1013.3
20260902002514 66 181 0.0 0.0 0.00 0.00 0.00 99 1013.5
20260902002009 66 188 0.0 0.0 0.00 0.00 0.00 99 1013.3
20260902001503 66 181 0.0 0.0 0.00 0.00 0.00 99 1013.3
20260902000958 66 176 0.0 0.0 0.00 0.00 0.00 99 1013.1
20260902000453 66 180 0.0 0.0 0.00 0.00 0.00 99 1012.8
20260901235948 66 180 0.0 0.0 0.00 0.00 0.00 99 1013.2
20260901235442 66 177 0.0 0.0 0.00 0.00 0.00 99 1013.1
20260901234938 66 176 0.0 0.0 0.00 0.00 0.00 99 1013.2
20260901234432 66 181 0.0 0.0 0.00 0.00 0.00 99 1012.9
20260901233926 66 181 0.0 0.0 0.00 0.00 0.00 99 1012.9
20260901233421 66 177 0.0 0.0 0.00 0.00 0.00 99 1013.2
20260901232918 66 180 0.0 0.0 0.00 0.00 0.00 99 1013.2
20260901232412 66 179 0.0 0.0 0.00 0.00 0.00 99 1013.0
20260901231907 66 180 0.0 0.0 0.00 0.00 0.00 99 1013.1
20260901231403 66 180 0.0 0.0 0.00 0.00 0.00 99 1013.2
20260901230900 66 180 0.0 0.0 0.00 0.00 0.00 99 1013.3
20260901230359 66 181 0.0 0.0 0.00 0.00 0.00 99 1013.2
20260901225855 66 177 0.0 0.0 0.00 0.00 0.00 99 1013.1
20260901225354 66 181 0.0 0.0 0.00 0.00 0.00 99 1013.2
20260901224849 66 177 0.0 0.0 0.00 0.00 0.00 99 1013.3
20260901224345 66 181 0.0 0.0 0.00 0.00 0.00 99 1013.0
20260901223842 66 181 0.0 0.0 0.00 0.00 0.00 99 1013.3
20260901223337 66 181 0.0 0.0 0.00 0.00 0.00 99 1013.2
20260901222832 66 180 0.0 0.0 0.00 0.00 0.00 99 1013.2
20260901222329 66 182 0.0 0.0 0.00 0.00 0.00 99 1012.8
20260901221824 67 188 0.0 0.0 0.00 0.00 0.00 99 1013.0
20260901221320 67 182 0.0 0.0 0.00 0.00 0.00 99 1013.3
20260901220820 66 180 0.0 0.0 0.00 0.00 0.00 99 1013.3
20260901220319 66 179 0.0 0.0 0.00 0.00 0.00 99 1013.4
20260901215818 66 180 0.0 0.0 0.00 0.00 0.00 99 1013.2
20260901215317 66 177 0.0 0.0 0.00 0.00 0.00 99 1013.2
20260901214815 66 180 0.0 0.0 0.00 0.00 0.00 99 1013.3
20260901214314 66 180 0.0 0.0 0.00 0.00 0.00 99 1013.0
20260901213810 66 177 0.0 0.0 0.00 0.00 0.00 99 1013.2
20260901213309 66 194 0.0 0.0 0.00 0.00 0.00 99 1013.1
20260901212804 66 180 0.0 0.0 0.00 0.00 0.00 99 1012.9
20260901212300 66 179 0.0 0.0 0.00 0.00 0.00 99 1013.1
20260901211755 66 173 0.0 0.0 0.00 0.00 0.00 99 1012.9
20260901211252 66 178 0.0 0.0 0.00 0.00 0.00 99 1012.9
20260901210747 66 180 0.0 0.0 0.00 0.00 0.00 99 1012.7
20260901210243 67 180 0.0 0.0 0.00 0.00 0.00 99 1012.8
20260901205739 67 177 0.0 0.0 0.00 0.00 0.00 99 1012.7
20260901205238 67 180 0.0 0.0 0.00 0.00 0.00 99 1012.8
20260901204734 67 165 0.0 0.0 0.00 0.00 0.00 99 1012.7
20260901204230 66 173 0.0 0.0 0.00 0.00 0.00 99 1012.9
20260901203725 66 181 0.0 0.0 0.00 0.00 0.00 99 1012.8
20260901203225 67 180 0.0 0.0 0.00 0.00 0.00 99 1012.9
20260901202724 66 180 0.0 0.0 0.00 0.00 0.00 99 1012.7
20260901202220 66 177 0.0 0.0 0.00 0.00 0.00 99 1012.7
20260901201715 66 180 0.0 0.0 0.00 0.00 0.00 99 1013.1
20260901201214 66 182 0.0 0.0 0.00 0.00 0.00 99 1013.0
20260901200709 66 180 0.0 0.0 0.00 0.00 0.00 99 1012.8
20260901200204 66 178 0.0 0.0 0.00 0.00 0.00 99 1012.7
20260901195702 66 180 0.0 0.0 0.00 0.00 0.00 99 1013.0
20260901195156 66 181 0.0 0.0 0.00 0.00 0.00 99 1013.1
20260901194652 66 179 0.0 0.0 0.00 0.00 0.00 99 1012.9
20260901194146 66 181 0.0 0.0 0.00 0.00 0.00 99 1012.7
20260901193643 66 184 0.0 0.0 0.00 0.00 0.00 99 1012.7
20260901193137 66 180 0.0 0.0 0.00 0.00 0.00 99 1012.9
20260901192631 66 182 0.0 0.0 0.00 0.00 0.00 99 1013.0
20260901192126 66 173 0.0 0.0 0.00 0.00 0.00 99 1012.9
20260901191623 66 170 0.0 0.0 0.00 0.00 0.00 99 1012.6
20260901191119 66 188 0.0 0.0 0.00 0.00 0.00 99 1012.4
20260901190614 66 185 0.0 0.0 0.00 0.00 0.00 99 1012.6
20260901190114 67 179 0.0 0.0 0.00 0.00 0.00 99 1012.5
20260901185612 66 172 0.0 0.0 0.00 0.00 0.00 99 1012.4
20260901185110 66 172 0.0 0.0 0.00 0.00 0.00 99 1012.5
20260901184606 66 181 0.0 0.0 0.00 0.00 0.00 99 1012.7
20260901184101 67 185 0.0 0.0 0.00 0.00 0.00 99 1012.5
20260901183555 67 179 0.0 0.0 0.00 0.00 0.00 99 1012.3
20260901183052 67 181 0.0 0.0 0.00 0.00 0.00 99 1012.4
20260901182548 67 179 0.0 0.0 0.00 0.00 0.00 99 1012.6
20260901182047 67 167 0.0 0.0 0.00 0.00 0.00 99 1012.4
20260901181546 67 181 0.0 0.0 0.00 0.00 0.00 99 1012.5
20260901181041 67 178 0.0 0.0 0.00 0.00 0.00 99 1012.5
20260901180539 67 185 0.9 0.9 0.00 0.00 0.00 99 1012.2
20260901180034 67 180 0.0 0.0 0.00 0.00 0.00 99 1012.3
20260901175528 67 189 0.0 0.0 0.00 0.00 0.00 99 1012.5
20260901175023 67 176 0.0 0.0 0.00 0.00 0.00 99 1012.3
20260901174519 67 177 0.0 0.0 0.00 0.00 0.00 99 1012.6
20260901174017 67 176 0.0 0.0 0.00 0.00 0.00 99 1012.2
20260901173509 67 181 0.0 0.0 0.00 0.00 0.00 99 1012.3
20260901173005 67 179 0.0 0.0 0.00 0.00 0.00 99 1012.3
20260901172500 67 179 0.0 0.0 0.00 0.00 0.00 99 1012.3
20260901171958 67 181 0.0 0.0 0.00 0.00 0.00 99 1012.2
20260901171457 67 181 0.0 0.0 0.00 0.00 0.00 99 1012.4
20260901170956 67 179 0.0 0.0 0.00 0.00 0.00 99 1012.3
20260901170451 67 189 0.0 0.0 0.00 0.00 0.00 99 1012.0
20260901165950 67 177 0.0 0.0 0.00 0.00 0.00 99 1012.1
20260901165445 67 178 0.0 0.0 0.00 0.00 0.00 99 1012.3
20260901164941 67 171 0.0 0.0 0.00 0.00 0.00 99 1012.1
20260901164436 67 184 0.0 0.0 0.00 0.00 0.00 99 1012.0
20260901163931 67 177 0.0 0.0 0.00 0.00 0.00 99 1012.4
20260901163427 67 177 0.0 0.0 0.00 0.00 0.00 99 1012.3
20260901162919 68 177 0.0 0.0 0.00 0.00 0.00 99 1012.3
20260901162414 68 181 0.0 0.0 0.00 0.00 0.00 99 1012.2
20260901161908 68 183 0.0 0.0 0.00 0.00 0.00 99 1012.3
20260901161407 68 179 0.0 0.0 0.00 0.00 0.00 99 1012.2
20260901160902 68 185 0.0 0.0 0.00 0.00 0.00 99 1012.0
20260901160359 68 172 0.0 0.0 0.00 0.00 0.00 99 1012.2
20260901155858 68 186 0.0 0.0 0.00 0.00 0.00 99 1012.3
20260901155352 67 178 0.0 0.0 0.00 0.00 0.00 99 1012.1
20260901154843 66 176 0.0 0.0 0.00 0.00 0.00 99 1012.0
20260901154342 66 183 0.0 0.0 0.00 0.00 0.00 99 1012.0
20260901153837 66 172 0.0 0.0 0.00 0.00 0.00 99 1011.9
20260901153332 65 182 0.0 0.0 0.00 0.00 0.00 99 1011.7
20260901152831 65 186 0.0 0.0 0.00 0.00 0.00 99 1011.9
20260901152330 65 172 0.0 0.0 0.00 0.00 0.00 99 1011.8
20260901151826 65 187 0.0 0.9 0.00 0.00 0.00 99 1011.4
20260901151326 66 185 0.0 0.0 0.00 0.00 0.00 99 1011.6
20260901150820 65 183 0.0 0.0 0.00 0.00 0.00 99 1012.0
20260901150318 65 180 0.0 0.0 0.00 0.00 0.00 99 1012.6
20260901145815 65 178 0.0 0.0 0.00 0.00 0.00 99 1013.0
20260901145310 65 183 0.0 0.0 0.00 0.00 0.00 99 1012.8
20260901144805 66 184 0.0 0.0 0.00 0.00 0.00 99 1012.6
20260901144301 66 176 0.0 0.0 0.00 0.00 0.00 99 1012.6
20260901143756 66 177 0.0 0.0 0.00 0.00 0.00 99 1012.2
20260901143252 65 198 0.0 0.0 0.00 0.00 0.00 99 1012.7
20260901142749 65 177 0.0 0.0 0.00 0.00 0.00 99 1012.5
20260901142247 65 181 0.0 0.0 0.00 0.00 0.00 99 1012.5
20260901141742 65 172 0.0 0.0 0.00 0.00 0.00 99 1012.5
20260901141237 65 177 0.0 0.0 0.00 0.00 0.00 99 1012.5
20260901140736 65 184 0.0 0.0 0.00 0.00 0.00 99 1012.5
20260901140234 65 179 0.0 0.0 0.00 0.00 0.00 99 1012.5
20260901135729 65 178 0.0 0.0 0.00 0.00 0.00 99 1012.4
20260901135224 65 102 0.0 0.9 0.00 0.00 0.00 99 1012.3
20260901134720 65 182 0.0 0.0 0.00 0.00 0.00 99 1012.3
20260901134220 65 191 0.0 0.0 0.00 0.00 0.00 99 1012.2
20260901133720 65 189 0.0 0.0 0.00 0.00 0.00 99 1012.6
20260901133218 65 177 0.0 0.0 0.00 0.00 0.00 99 1012.4
20260901132717 65 174 0.0 0.0 0.00 0.00 0.00 99 1012.3
20260901132212 65 179 0.0 0.0 0.00 0.00 0.00 99 1012.6
20260901131707 65 175 0.0 0.0 0.00 0.00 0.00 99 1012.4
20260901131206 65 180 0.0 0.0 0.00 0.00 0.00 99 1012.6
20260901130702 65 181 0.0 0.0 0.00 0.00 0.00 99 1012.5
20260901130200 66 178 0.0 0.0 0.00 0.00 0.00 99 1012.7
20260901125658 66 181 0.0 0.0 0.00 0.00 0.00 99 1012.8
20260901125153 65 180 0.0 0.0 0.00 0.00 0.00 99 1012.7
20260901124648 65 179 0.0 0.0 0.00 0.00 0.00 99 1012.9
20260901124143 65 181 0.0 0.0 0.00 0.00 0.00 99 1013.1
20260901123638 65 178 0.0 0.0 0.00 0.00 0.00 99 1012.9
20260901123138 65 178 0.0 0.0 0.00 0.00 0.00 99 1013.1
20260901122636 65 179 0.0 0.0 0.00 0.00 0.00 99 1013.1
20260901122131 65 179 0.0 0.0 0.00 0.00 0.00 99 1012.9
20260901121626 65 185 0.0 0.0 0.00 0.00 0.00 99 1013.0
20260901121121 65 172 0.0 0.0 0.00 0.00 0.00 99 1013.3
20260901120621 65 176 0.0 0.0 0.00 0.00 0.00 99 1013.0
20260901120116 65 176 0.0 0.0 0.00 0.00 0.00 99 1013.4
20260901115611 65 180 0.0 0.0 0.00 0.00 0.00 99 1013.2
20260901115108 65 179 0.0 0.0 0.00 0.00 0.00 99 1012.8
20260901114604 65 183 0.0 0.0 0.00 0.00 0.00 99 1013.0
20260901114103 65 180 0.0 0.0 0.00 0.00 0.00 99 1013.1
20260901113602 65 187 0.0 0.0 0.00 0.00 0.00 99 1012.8
20260901113058 65 155 0.0 0.0 0.00 0.00 0.00 99 1012.8
20260901112557 65 182 0.0 0.0 0.00 0.00 0.00 99 1012.9
20260901112052 65 182 0.0 0.0 0.00 0.00 0.00 99 1012.7
20260901111551 65 179 0.0 0.0 0.00 0.00 0.00 99 1013.0
20260901111049 64 179 0.0 0.0 0.00 0.00 0.00 99 1013.0
20260901110545 64 181 0.0 0.0 0.00 0.00 0.00 99 1013.0
20260901110040 65 180 0.0 0.0 0.00 0.00 0.00 99 1012.8
20260901105537 64 179 0.0 0.0 0.00 0.00 0.00 99 1013.1
20260901105030 64 179 0.0 0.0 0.00 0.00 0.00 99 1013.1
20260901104526 64 179 0.0 0.0 0.00 0.00 0.00 99 1012.7
20260901104016 64 180 0.0 0.0 0.00 0.00 0.00 99 1012.7
20260901103516 64 178 0.0 0.0 0.00 0.00 0.00 99 1012.5
20260901103011 64 179 0.0 0.0 0.00 0.00 0.00 99 1012.6
20260901102506 64 160 0.0 0.0 0.00 0.00 0.00 99 1012.8
20260901102006 64 176 0.0 0.0 0.00 0.00 0.00 99 1012.2
20260901101501 64 177 0.0 0.0 0.00 0.00 0.00 99 1012.3
20260901100956 64 219 0.0 0.0 0.00 0.00 0.00 99 1012.1
20260901100450 64 179 0.0 0.0 0.00 0.00 0.00 99 1011.9
20260901095949 64 177 0.0 0.0 0.00 0.00 0.00 99 1012.5
20260901095449 64 182 0.0 0.0 0.00 0.00 0.00 99 1012.2
20260901094941 64 188 0.0 0.0 0.00 0.00 0.00 99 1012.4
20260901094441 64 186 0.0 0.0 0.00 0.00 0.00 99 1012.1
20260901093935 64 179 0.0 0.0 0.00 0.00 0.00 99 1012.2
20260901093430 64 177 0.0 0.0 0.00 0.00 0.00 99 1012.3
20260901092925 64 184 0.0 0.0 0.00 0.00 0.00 99 1012.3
20260901092421 64 182 0.0 0.0 0.00 0.00 0.00 99 1012.0
20260901091917 64 180 0.0 0.0 0.00 0.00 0.00 99 1012.1
20260901091416 64 176 0.0 0.0 0.00 0.00 0.00 99 1012.1
20260901090912 64 173 0.0 0.0 0.00 0.00 0.00 99 1012.3
20260901090411 64 179 0.0 0.0 0.00 0.00 0.00 99 1012.0
20260901085907 64 179 0.0 0.0 0.00 0.00 0.00 99 1012.3
20260901085403 65 178 0.0 0.0 0.00 0.00 0.00 99 1012.2
20260901084859 65 178 0.0 0.0 0.00 0.00 0.00 99 1012.2
20260901084355 65 179 0.0 0.0 0.00 0.00 0.00 99 1012.4
20260901083849 65 179 0.0 0.0 0.00 0.00 0.00 99 1012.6
20260901083344 64 177 0.0 0.0 0.00 0.00 0.00 99 1012.6
20260901082842 64 180 0.0 0.0 0.00 0.00 0.00 99 1012.6
20260901082338 64 179 0.0 0.0 0.00 0.00 0.00 99 1012.3
20260901081833 64 178 0.0 0.0 0.00 0.00 0.00 99 1012.5
20260901081328 65 180 0.0 0.0 0.00 0.00 0.00 99 1012.8
20260901080827 64 177 0.0 0.0 0.00 0.00 0.00 99 1012.7
20260901080322 64 180 0.0 0.0 0.00 0.00 0.00 99 1012.7
20260901075816 64 180 0.0 0.0 0.00 0.00 0.00 99 1012.9
20260901075311 64 177 0.0 0.0 0.00 0.00 0.00 99 1012.7
20260901074806 64 177 0.0 0.0 0.00 0.00 0.00 99 1012.8
20260901074301 64 177 0.0 0.0 0.00 0.00 0.00 99 1012.8
20260901073757 64 177 0.0 0.0 0.00 0.00 0.00 99 1013.0
20260901073252 64 181 0.0 0.0 0.00 0.00 0.00 99 1012.9
20260901072747 64 181 0.0 0.0 0.00 0.00 0.00 99 1013.0
20260901072242 64 178 0.0 0.0 0.00 0.00 0.00 99 1013.1
20260901071736 64 178 0.0 0.0 0.00 0.00 0.00 99 1013.0
20260901071231 64 184 0.0 0.0 0.00 0.00 0.00 99 1013.2
20260901070730 64 179 0.0 0.0 0.00 0.00 0.00 99 1013.0
20260901070225 64 179 0.0 0.0 0.00 0.00 0.00 99 1013.1
20260901065724 64 178 0.0 0.0 0.00 0.00 0.00 99 1013.1
20260901065220 64 179 0.0 0.0 0.00 0.00 0.00 99 1013.3
20260901064716 64 181 0.0 0.0 0.00 0.00 0.00 99 1013.3
20260901064212 64 182 0.0 0.0 0.00 0.00 0.00 99 1013.2
20260901063709 64 180 0.0 0.0 0.00 0.00 0.00 99 1012.9
20260901063205 65 181 0.0 0.0 0.00 0.00 0.00 99 1013.3
20260901062700 64 180 0.0 0.0 0.00 0.00 0.00 99 1013.3
20260901062156 64 181 0.0 0.0 0.00 0.00 0.00 99 1013.5